WXM80 ListenWXM80 Stop

You find our weather info also at:

UK Metoffice

WeatherCloud

Weather Underground

Northeastern Weather Network

AWEKAS

Citizen Weather Observer Program (CWOP)

HAMweather, WeatherForYou, PWS Weather


Weather Underground History page Text

Daily Summary for May 14, 2017 Units:  English    Metric   Both
« Previous Day
Next Day »
Daily Weekly Monthly Yearly Custom
  High: Low: Average:
Temperature: 71.4 °F 45.3 °F 55.5 °F
Dew Point: 54.9 °F 44.2 °F 48.7 °F
Humidity: 98 % 49 % 80 %
Wind Speed: 12.8 mph 0.0 mph 4.2 mph
Wind Gust: 23.0 mph - -
Wind:- - SW
Pressure: 29.73 in 29.51 in -
Precipitation: 0.08 in    
Historical Graphs
 
 
Tabular Data for May 14, 2017
Time Temperature Dew Point Pressure Wind Wind Speed Wind Gust Humidity Rainfall Rate (Hourly)
00:03 46.6 °F 45.8 °F 29.73 in NNE 11.6 mph 16.1 mph 97 % 0.05 in
00:08 46.7 °F 46.2 °F 29.73 in NNE 10.6 mph 17.0 mph 98 % 0.05 in
00:13 46.7 °F 46.2 °F 29.72 in NNE 11.4 mph 19.0 mph 98 % 0.06 in
00:18 46.7 °F 46.2 °F 29.72 in NNE 9.9 mph 15.0 mph 98 % 0.06 in
00:23 46.8 °F 46.0 °F 29.72 in NE 12.8 mph 13.8 mph 97 % 0.05 in
00:29 46.8 °F 46.0 °F 29.72 in NNE 9.3 mph 12.7 mph 97 % 0.05 in
00:30 46.8 °F 46.0 °F 29.72 in North 7.5 mph 15.0 mph 97 % 0.05 in
00:35 46.8 °F 46.0 °F 29.71 in East 8.4 mph 15.0 mph 97 % 0.06 in
00:40 46.8 °F 46.0 °F 29.71 in NNE 9.7 mph 23.0 mph 97 % 0.05 in
00:45 46.8 °F 46.0 °F 29.71 in North 9.3 mph 11.5 mph 97 % 0.05 in
00:50 46.7 °F 45.9 °F 29.71 in ENE 9.7 mph 15.0 mph 97 % 0.04 in
00:55 46.6 °F 45.8 °F 29.70 in NNE 7.5 mph 13.8 mph 97 % 0.04 in
01:00 46.6 °F 45.8 °F 29.70 in NNE 7.0 mph 12.0 mph 97 % 0.03 in
01:05 46.7 °F 45.9 °F 29.70 in NNE 5.1 mph 10.4 mph 97 % 0.03 in
01:10 46.7 °F 45.9 °F 29.69 in ENE 7.7 mph 13.8 mph 97 % 0.03 in
01:15 46.7 °F 45.9 °F 29.69 in ENE 8.3 mph 10.4 mph 97 % 0.02 in
01:20 46.8 °F 46.0 °F 29.69 in ENE 6.7 mph 11.5 mph 97 % 0.02 in
01:21 46.7 °F 45.9 °F 29.68 in ENE 7.1 mph 11.5 mph 97 % 0.02 in
01:26 46.8 °F 46.0 °F 29.68 in NE 5.9 mph 11.0 mph 97 % 0.03 in
01:31 46.8 °F 46.0 °F 29.68 in NE 7.0 mph 11.5 mph 97 % 0.03 in
01:36 46.9 °F 46.1 °F 29.67 in ENE 5.0 mph 10.0 mph 97 % 0.00 in
01:41 46.9 °F 46.1 °F 29.67 in ENE 6.3 mph 11.5 mph 97 % 0.02 in
01:46 47.0 °F 46.2 °F 29.67 in ENE 10.1 mph 13.8 mph 97 % 0.01 in
01:51 47.0 °F 46.2 °F 29.66 in East 11.8 mph 18.4 mph 97 % 0.01 in
01:56 47.0 °F 46.2 °F 29.66 in NE 10.0 mph 18.4 mph 97 % 0.01 in
02:01 47.0 °F 46.2 °F 29.67 in North 5.7 mph 11.0 mph 97 % 0.01 in
02:06 47.0 °F 46.2 °F 29.67 in NNE 8.4 mph 15.0 mph 97 % 0.02 in
02:11 46.9 °F 46.1 °F 29.67 in NNE 8.7 mph 15.0 mph 97 % 0.03 in
02:16 46.9 °F 46.1 °F 29.67 in NE 8.2 mph 11.5 mph 97 % 0.03 in
02:21 46.8 °F 46.0 °F 29.67 in North 5.4 mph 10.4 mph 97 % 0.03 in
02:26 46.7 °F 45.9 °F 29.67 in North 6.6 mph 11.5 mph 97 % 0.02 in
02:31 46.5 °F 45.7 °F 29.67 in North 7.7 mph 11.5 mph 97 % 0.02 in
02:36 46.4 °F 45.6 °F 29.66 in NNE 5.2 mph 11.5 mph 97 % 0.02 in
02:41 46.2 °F 45.4 °F 29.67 in NNE 7.4 mph 11.0 mph 97 % 0.02 in
02:46 46.1 °F 45.3 °F 29.66 in NNE 9.1 mph 12.7 mph 97 % 0.02 in
02:51 45.9 °F 45.1 °F 29.66 in NE 8.4 mph 19.6 mph 97 % 0.02 in
02:57 45.7 °F 44.6 °F 29.66 in NE 10.7 mph 19.6 mph 96 % 0.02 in
03:02 45.6 °F 44.5 °F 29.66 in North 8.1 mph 12.7 mph 96 % 0.02 in
03:07 45.6 °F 44.5 °F 29.65 in NNE 9.1 mph 16.1 mph 96 % 0.01 in
03:12 45.5 °F 44.4 °F 29.65 in NNE 10.0 mph 19.6 mph 96 % 0.00 in
03:17 45.4 °F 44.6 °F 29.65 in North 11.7 mph 16.1 mph 97 % 0.00 in
03:22 45.4 °F 44.6 °F 29.65 in ENE 9.2 mph 12.7 mph 97 % 0.00 in
03:27 45.4 °F 44.6 °F 29.66 in North 7.0 mph 13.8 mph 97 % 0.00 in
03:32 45.4 °F 44.6 °F 29.66 in NNE 8.7 mph 12.7 mph 97 % 0.00 in
03:37 45.3 °F 44.5 °F 29.66 in North 8.0 mph 13.8 mph 97 % 0.00 in
03:42 45.3 °F 44.2 °F 29.65 in NNE 9.3 mph 12.7 mph 96 % 0.00 in
03:47 45.3 °F 44.5 °F 29.65 in NNE 8.4 mph 11.5 mph 97 % 0.00 in
03:48 45.3 °F 44.5 °F 29.65 in NNE 10.6 mph 17.3 mph 97 % 0.00 in
03:53 45.3 °F 44.2 °F 29.65 in NNE 8.9 mph 16.1 mph 96 % 0.00 in
03:58 45.3 °F 44.2 °F 29.65 in North 5.4 mph 13.8 mph 96 % 0.00 in
04:03 45.3 °F 44.2 °F 29.65 in NNW 5.9 mph 11.5 mph 96 % 0.00 in
04:08 45.3 °F 44.2 °F 29.65 in NNW 5.2 mph 10.4 mph 96 % 0.00 in
04:13 45.4 °F 44.3 °F 29.65 in NNE 4.9 mph 11.5 mph 96 % 0.00 in
04:18 45.4 °F 44.3 °F 29.65 in NE 6.9 mph 11.5 mph 96 % 0.00 in
04:23 45.3 °F 44.2 °F 29.65 in NE 3.8 mph 10.4 mph 96 % 0.00 in
04:28 45.4 °F 44.3 °F 29.65 in NNE 4.9 mph 8.1 mph 96 % 0.00 in
04:33 45.4 °F 44.3 °F 29.65 in NE 4.6 mph 9.2 mph 96 % 0.00 in
04:38 45.4 °F 44.3 °F 29.65 in North 5.9 mph 10.4 mph 96 % 0.00 in
04:43 45.4 °F 44.3 °F 29.65 in NNE 4.9 mph 6.9 mph 96 % 0.00 in
04:48 45.4 °F 44.3 °F 29.65 in NE 4.4 mph 9.2 mph 96 % 0.00 in
04:53 45.4 °F 44.3 °F 29.65 in ENE 7.1 mph 11.0 mph 96 % 0.00 in
04:58 45.4 °F 44.3 °F 29.65 in North 7.2 mph 13.8 mph 96 % 0.00 in
05:03 45.3 °F 44.2 °F 29.65 in North 4.9 mph 6.9 mph 96 % 0.00 in
05:08 45.3 °F 44.2 °F 29.65 in NNW 2.0 mph 3.5 mph 96 % 0.00 in
05:13 45.3 °F 44.2 °F 29.65 in WNW 4.5 mph 7.0 mph 96 % 0.00 in
05:18 45.3 °F 44.2 °F 29.65 in NW 1.4 mph 9.2 mph 96 % 0.00 in
05:23 45.3 °F 44.2 °F 29.65 in NW 2.0 mph 5.8 mph 96 % 0.00 in
05:28 45.3 °F 44.2 °F 29.65 in WNW 1.8 mph 6.0 mph 96 % 0.00 in
05:33 45.4 °F 44.3 °F 29.65 in North 5.0 mph 8.0 mph 96 % 0.00 in
05:38 45.4 °F 44.3 °F 29.65 in NE 4.8 mph 6.9 mph 96 % 0.00 in
05:43 45.4 °F 44.3 °F 29.65 in NNE 3.6 mph 6.9 mph 96 % 0.00 in
05:48 45.4 °F 44.3 °F 29.65 in NNE 4.8 mph 10.4 mph 96 % 0.00 in
05:51 45.4 °F 44.3 °F 29.65 in North 6.0 mph 12.0 mph 96 % 0.00 in
05:56 45.4 °F 44.3 °F 29.65 in North 5.0 mph 10.0 mph 96 % 0.00 in
06:01 45.4 °F 44.3 °F 29.65 in NNW 2.5 mph 8.1 mph 96 % 0.00 in
06:06 45.4 °F 44.3 °F 29.65 in NNW 3.0 mph 9.0 mph 96 % 0.00 in
06:11 45.5 °F 44.2 °F 29.65 in North 2.0 mph 7.0 mph 95 % 0.00 in
06:16 45.5 °F 44.2 °F 29.65 in NNE 3.2 mph 7.0 mph 95 % 0.00 in
06:18 45.5 °F 44.2 °F 29.65 in NNW 2.8 mph 9.0 mph 95 % 0.00 in
06:23 45.5 °F 44.2 °F 29.65 in NNW 2.6 mph 6.9 mph 95 % 0.00 in
06:28 45.6 °F 44.3 °F 29.66 in NNW 2.3 mph 4.6 mph 95 % 0.00 in
06:33 45.6 °F 44.3 °F 29.66 in North 5.2 mph 9.0 mph 95 % 0.00 in
06:38 45.7 °F 44.4 °F 29.66 in North 4.9 mph 10.4 mph 95 % 0.00 in
06:43 45.8 °F 44.4 °F 29.66 in NW 2.5 mph 4.6 mph 95 % 0.00 in
06:48 45.8 °F 44.4 °F 29.66 in North 2.8 mph 8.1 mph 95 % 0.00 in
06:53 45.9 °F 44.5 °F 29.66 in NW 5.4 mph 10.4 mph 95 % 0.00 in
06:58 45.9 °F 44.5 °F 29.67 in North 4.2 mph 11.5 mph 95 % 0.00 in
07:03 46.0 °F 44.4 °F 29.67 in North 3.6 mph 5.8 mph 94 % 0.00 in
07:08 46.1 °F 44.5 °F 29.67 in NNW 1.1 mph 3.5 mph 94 % 0.00 in
07:13 46.2 °F 44.6 °F 29.67 in North 2.6 mph 8.0 mph 94 % 0.00 in
07:18 46.3 °F 44.7 °F 29.67 in NW 3.0 mph 4.6 mph 94 % 0.00 in
07:23 46.4 °F 44.8 °F 29.67 in North 4.8 mph 9.2 mph 94 % 0.00 in
07:28 46.5 °F 44.9 °F 29.67 in NNE 2.6 mph 6.9 mph 94 % 0.00 in
07:33 46.6 °F 45.0 °F 29.67 in North 3.2 mph 6.0 mph 94 % 0.00 in
07:38 46.7 °F 45.1 °F 29.67 in WNW 4.8 mph 8.1 mph 94 % 0.00 in
07:43 46.8 °F 44.9 °F 29.67 in West 2.2 mph 6.0 mph 93 % 0.00 in
07:48 47.0 °F 45.1 °F 29.67 in NNW 4.4 mph 5.0 mph 93 % 0.00 in
07:53 47.2 °F 45.6 °F 29.66 in NNW 4.1 mph 8.1 mph 94 % 0.00 in
07:58 47.7 °F 46.1 °F 29.66 in WNW 5.5 mph 13.8 mph 94 % 0.00 in
08:04 48.0 °F 46.1 °F 29.66 in North 4.1 mph 6.9 mph 93 % 0.00 in
08:09 48.3 °F 46.1 °F 29.66 in North 5.8 mph 10.4 mph 92 % 0.00 in
08:14 48.4 °F 46.2 °F 29.66 in NNW 3.9 mph 6.9 mph 92 % 0.00 in
08:19 48.4 °F 45.9 °F 29.66 in NNW 1.7 mph 6.9 mph 91 % 0.00 in
08:24 48.6 °F 46.1 °F 29.66 in WNW 3.7 mph 6.9 mph 91 % 0.00 in
08:29 48.8 °F 46.6 °F 29.66 in NNW 4.2 mph 9.2 mph 92 % 0.00 in
08:34 49.2 °F 46.7 °F 29.66 in NNW 5.1 mph 8.1 mph 91 % 0.00 in
08:39 49.5 °F 47.0 °F 29.66 in WNW 2.4 mph 6.0 mph 91 % 0.00 in
08:44 49.8 °F 47.0 °F 29.66 in NNW 4.1 mph 8.0 mph 90 % 0.00 in
08:49 50.2 °F 47.4 °F 29.66 in NNW 2.0 mph 8.1 mph 90 % 0.00 in
08:54 50.5 °F 47.7 °F 29.66 in NW 3.3 mph 6.9 mph 90 % 0.00 in
08:59 51.0 °F 48.2 °F 29.66 in NW 5.0 mph 10.4 mph 90 % 0.00 in
09:04 51.3 °F 47.9 °F 29.66 in NNE 3.8 mph 12.7 mph 88 % 0.00 in
09:09 51.5 °F 48.1 °F 29.66 in WNW 2.5 mph 9.2 mph 88 % 0.00 in
09:14 51.9 °F 47.8 °F 29.66 in North 3.3 mph 9.2 mph 86 % 0.00 in
09:19 52.1 °F 47.7 °F 29.66 in NW 2.9 mph 5.8 mph 85 % 0.00 in
09:24 52.4 °F 48.0 °F 29.66 in NNW 2.4 mph 6.9 mph 85 % 0.00 in
09:29 52.8 °F 48.7 °F 29.65 in NNW 1.3 mph 3.5 mph 86 % 0.00 in
09:35 53.4 °F 49.3 °F 29.65 in West 2.6 mph 3.5 mph 86 % 0.00 in
09:40 53.9 °F 49.5 °F 29.65 in North 2.9 mph 9.2 mph 85 % 0.00 in
09:45 54.5 °F 49.4 °F 29.64 in NNE 5.0 mph 6.9 mph 83 % 0.00 in
09:50 55.1 °F 50.0 °F 29.65 in North 2.6 mph 5.8 mph 83 % 0.00 in
09:55 55.6 °F 49.5 °F 29.64 in NW 5.8 mph 10.4 mph 80 % 0.00 in
10:00 56.4 °F 50.6 °F 29.64 in NW 3.7 mph 9.2 mph 81 % 0.00 in
10:05 57.1 °F 51.3 °F 29.64 in West 4.3 mph 7.0 mph 81 % 0.00 in
10:10 57.7 °F 50.5 °F 29.64 in NW 5.7 mph 10.4 mph 77 % 0.00 in
10:15 58.3 °F 51.1 °F 29.64 in West 3.0 mph 6.0 mph 77 % 0.00 in
10:20 58.7 °F 51.2 °F 29.64 in North 3.0 mph 11.5 mph 76 % 0.00 in
10:25 59.1 °F 50.8 °F 29.64 in NNW 3.0 mph 5.8 mph 74 % 0.00 in
10:30 59.6 °F 51.3 °F 29.64 in NW 1.0 mph 3.5 mph 74 % 0.00 in
10:35 59.9 °F 50.8 °F 29.64 in NNW 2.0 mph 4.6 mph 72 % 0.00 in
10:40 60.2 °F 51.5 °F 29.64 in NW 1.8 mph 5.8 mph 73 % 0.00 in
10:45 60.5 °F 50.7 °F 29.64 in WNW 7.9 mph 12.7 mph 70 % 0.00 in
10:50 60.7 °F 52.0 °F 29.63 in North 0.9 mph 3.5 mph 73 % 0.00 in
10:55 61.4 °F 52.3 °F 29.63 in North 2.7 mph 6.9 mph 72 % 0.00 in
11:00 61.7 °F 50.6 °F 29.63 in WNW 4.5 mph 9.2 mph 67 % 0.00 in
11:05 62.2 °F 52.3 °F 29.63 in NW 3.0 mph 6.9 mph 70 % 0.00 in
11:10 62.5 °F 53.0 °F 29.63 in WNW 2.1 mph 3.5 mph 71 % 0.00 in
11:15 62.9 °F 52.6 °F 29.63 in SW 6.0 mph 8.1 mph 69 % 0.00 in
11:20 63.4 °F 53.0 °F 29.63 in NW 4.5 mph 8.1 mph 69 % 0.00 in
11:25 63.6 °F 51.6 °F 29.63 in NW 2.7 mph 6.9 mph 65 % 0.00 in
11:30 64.0 °F 52.4 °F 29.63 in NW 3.3 mph 4.6 mph 66 % 0.00 in
11:35 64.1 °F 52.1 °F 29.63 in WNW 2.1 mph 6.9 mph 65 % 0.00 in
11:40 64.5 °F 51.6 °F 29.63 in NNW 3.7 mph 9.2 mph 63 % 0.00 in
11:45 64.8 °F 52.3 °F 29.62 in NNW 3.6 mph 8.1 mph 64 % 0.00 in
11:50 65.3 °F 53.2 °F 29.62 in NW 2.2 mph 4.6 mph 65 % 0.00 in
11:55 65.6 °F 51.8 °F 29.62 in WNW 5.5 mph 9.2 mph 61 % 0.00 in
12:00 65.9 °F 54.2 °F 29.62 in NE 3.4 mph 5.8 mph 66 % 0.00 in
12:05 66.2 °F 53.2 °F 29.62 in NW 4.2 mph 7.0 mph 63 % 0.00 in
12:11 66.3 °F 52.0 °F 29.62 in NW 5.0 mph 9.0 mph 60 % 0.00 in
12:16 66.3 °F 51.5 °F 29.61 in NW 3.0 mph 10.0 mph 59 % 0.00 in
12:17 66.2 °F 52.3 °F 29.61 in WNW 5.0 mph 11.5 mph 61 % 0.00 in
12:22 66.4 °F 53.0 °F 29.61 in West 2.2 mph 5.0 mph 62 % 0.00 in
12:27 66.6 °F 52.3 °F 29.60 in WNW 5.7 mph 10.4 mph 60 % 0.00 in
12:32 66.8 °F 52.5 °F 29.60 in NNW 2.7 mph 5.8 mph 60 % 0.00 in
12:37 67.0 °F 51.7 °F 29.60 in NNW 2.3 mph 5.8 mph 58 % 0.00 in
12:42 67.2 °F 52.4 °F 29.60 in West 2.8 mph 6.9 mph 59 % 0.00 in
12:47 67.4 °F 51.2 °F 29.60 in North 5.9 mph 9.2 mph 56 % 0.00 in
12:52 67.6 °F 52.8 °F 29.60 in North 4.7 mph 8.1 mph 59 % 0.00 in
12:57 67.8 °F 54.3 °F 29.59 in NNW 2.9 mph 6.9 mph 62 % 0.00 in
13:02 68.1 °F 50.8 °F 29.59 in WNW 6.9 mph 11.5 mph 54 % 0.00 in
13:07 68.1 °F 51.3 °F 29.59 in West 4.9 mph 8.0 mph 55 % 0.00 in
13:13 68.3 °F 52.0 °F 29.58 in WNW 1.9 mph 9.2 mph 56 % 0.00 in
13:18 68.6 °F 52.3 °F 29.58 in SW 3.8 mph 10.0 mph 56 % 0.00 in
13:22 68.7 °F 50.9 °F 29.58 in WNW 5.5 mph 8.1 mph 53 % 0.00 in
13:27 68.8 °F 51.5 °F 29.58 in NW 2.1 mph 4.6 mph 54 % 0.00 in
13:32 69.0 °F 52.6 °F 29.58 in WNW 3.8 mph 5.8 mph 56 % 0.00 in
13:37 69.3 °F 52.9 °F 29.58 in North 1.2 mph 3.5 mph 56 % 0.00 in
13:42 69.7 °F 52.8 °F 29.58 in NNE 2.2 mph 4.6 mph 55 % 0.00 in
13:47 70.0 °F 53.1 °F 29.57 in NNW 0.8 mph 3.5 mph 55 % 0.00 in
13:52 70.4 °F 51.4 °F 29.57 in WNW 2.6 mph 8.1 mph 51 % 0.00 in
13:57 70.7 °F 52.2 °F 29.57 in West 2.3 mph 4.6 mph 52 % 0.00 in
14:02 70.8 °F 51.2 °F 29.56 in WNW 3.1 mph 6.9 mph 50 % 0.00 in
14:07 70.8 °F 51.8 °F 29.56 in WNW 3.5 mph 6.9 mph 51 % 0.00 in
14:12 71.0 °F 54.0 °F 29.56 in NW 4.4 mph 7.0 mph 55 % 0.00 in
14:17 71.2 °F 52.7 °F 29.56 in WNW 2.4 mph 5.0 mph 52 % 0.00 in
14:18 71.3 °F 52.2 °F 29.56 in WNW 1.7 mph 4.6 mph 51 % 0.00 in
14:23 71.4 °F 52.9 °F 29.56 in NNE 1.9 mph 4.0 mph 52 % 0.00 in
14:28 71.2 °F 51.1 °F 29.56 in WNW 1.2 mph 5.8 mph 49 % 0.00 in
14:33 71.2 °F 52.1 °F 29.55 in WNW 0.6 mph 2.3 mph 51 % 0.00 in
14:38 71.1 °F 52.6 °F 29.56 in NNW 1.5 mph 3.5 mph 52 % 0.00 in
14:43 70.7 °F 52.2 °F 29.55 in NW 1.4 mph 3.5 mph 52 % 0.00 in
14:48 70.1 °F 51.1 °F 29.55 in ENE 1.8 mph 5.8 mph 51 % 0.00 in
14:54 69.6 °F 51.2 °F 29.55 in North 0.1 mph 2.3 mph 52 % 0.00 in
14:59 69.0 °F 50.6 °F 29.55 in North 1.1 mph 3.5 mph 52 % 0.00 in
15:04 68.5 °F 51.7 °F 29.54 in North 0.5 mph 2.3 mph 55 % 0.00 in
15:09 68.2 °F 49.9 °F 29.54 in WNW 1.2 mph 3.5 mph 52 % 0.00 in
15:14 68.0 °F 50.2 °F 29.53 in WSW 1.5 mph 5.0 mph 53 % 0.00 in
15:19 67.8 °F 51.5 °F 29.53 in West 0.4 mph 2.3 mph 56 % 0.00 in
15:24 67.6 °F 50.9 °F 29.53 in West 1.8 mph 3.5 mph 55 % 0.00 in
15:26 67.6 °F 51.3 °F 29.53 in West 1.4 mph 2.3 mph 56 % 0.00 in
15:31 67.3 °F 50.6 °F 29.53 in West 1.6 mph 4.6 mph 55 % 0.00 in
15:36 67.0 °F 50.3 °F 29.53 in SW 4.8 mph 10.4 mph 55 % 0.00 in
15:41 66.6 °F 50.9 °F 29.53 in WSW 7.5 mph 12.7 mph 57 % 0.00 in
15:46 66.0 °F 52.1 °F 29.54 in WSW 2.0 mph 15.0 mph 61 % 0.00 in
15:51 65.4 °F 52.9 °F 29.54 in WSW 5.0 mph 17.0 mph 64 % 0.00 in
15:56 64.3 °F 52.2 °F 29.54 in WSW 8.0 mph 14.0 mph 65 % 0.00 in
16:01 63.0 °F 52.7 °F 29.53 in West 4.8 mph 6.9 mph 69 % 0.00 in
16:06 62.5 °F 53.0 °F 29.53 in SW 3.6 mph 9.2 mph 71 % 0.00 in
16:11 62.2 °F 53.4 °F 29.52 in West 3.3 mph 5.8 mph 73 % 0.00 in
16:16 62.2 °F 54.9 °F 29.52 in WSW 1.4 mph 3.5 mph 77 % 0.00 in
16:21 62.5 °F 54.1 °F 29.52 in WSW 3.6 mph 9.2 mph 74 % 0.00 in
16:26 62.9 °F 54.5 °F 29.51 in WSW 3.0 mph 4.0 mph 74 % 0.00 in
16:28 63.1 °F 54.3 °F 29.51 in West 4.4 mph 8.1 mph 73 % 0.00 in
16:33 63.6 °F 54.0 °F 29.51 in WSW 3.8 mph 9.2 mph 71 % 0.00 in
16:38 64.1 °F 53.3 °F 29.51 in West 1.4 mph 3.5 mph 68 % 0.00 in
16:43 64.6 °F 53.0 °F 29.52 in SW 4.6 mph 7.0 mph 66 % 0.00 in
16:48 65.0 °F 53.4 °F 29.52 in WNW 3.1 mph 6.0 mph 66 % 0.00 in
16:53 65.4 °F 52.0 °F 29.52 in WNW 4.3 mph 8.1 mph 62 % 0.00 in
16:58 65.8 °F 52.4 °F 29.52 in NW 6.9 mph 10.0 mph 62 % 0.00 in
16:59 65.8 °F 52.4 °F 29.52 in NW 3.8 mph 10.4 mph 62 % 0.00 in
17:04 65.9 °F 52.1 °F 29.52 in WSW 4.1 mph 11.5 mph 61 % 0.00 in
17:09 65.9 °F 52.9 °F 29.52 in West 1.3 mph 3.5 mph 63 % 0.00 in
17:14 65.9 °F 52.5 °F 29.52 in WSW 1.6 mph 7.0 mph 62 % 0.00 in
17:19 65.7 °F 52.8 °F 29.53 in WSW 3.2 mph 4.6 mph 63 % 0.00 in
17:25 65.5 °F 53.0 °F 29.53 in WNW 2.0 mph 6.9 mph 64 % 0.00 in
17:30 65.0 °F 53.4 °F 29.55 in SW 11.7 mph 12.0 mph 66 % 0.00 in
17:35 63.7 °F 54.1 °F 29.54 in NW 2.8 mph 9.2 mph 71 % 0.02 in
17:40 62.7 °F 53.9 °F 29.54 in WNW 5.4 mph 10.4 mph 73 % 0.02 in
17:45 61.6 °F 53.2 °F 29.54 in West 3.4 mph 11.5 mph 74 % 0.02 in
17:50 60.9 °F 53.3 °F 29.54 in WNW 4.2 mph 8.1 mph 76 % 0.02 in
17:55 60.1 °F 52.9 °F 29.55 in WNW 4.6 mph 11.5 mph 77 % 0.02 in
18:00 59.5 °F 53.0 °F 29.55 in NW 3.8 mph 5.8 mph 79 % 0.02 in
18:05 58.9 °F 53.1 °F 29.54 in NNE 2.9 mph 9.2 mph 81 % 0.02 in
18:06 58.8 °F 52.6 °F 29.54 in NNE 2.8 mph 7.0 mph 80 % 0.02 in
18:11 58.3 °F 52.2 °F 29.54 in NW 2.3 mph 4.6 mph 80 % 0.02 in
18:16 58.0 °F 52.2 °F 29.54 in North 2.8 mph 4.0 mph 81 % 0.02 in
18:21 58.0 °F 52.5 °F 29.54 in NNW 1.3 mph 3.0 mph 82 % 0.02 in
18:26 58.0 °F 52.2 °F 29.54 in WSW 3.2 mph 6.9 mph 81 % 0.02 in
18:31 58.0 °F 52.2 °F 29.54 in NW 4.1 mph 6.9 mph 81 % 0.01 in
18:36 57.9 °F 51.8 °F 29.54 in WNW 2.9 mph 4.6 mph 80 % 0.00 in
18:41 57.8 °F 51.7 °F 29.54 in WNW 0.4 mph 1.2 mph 80 % 0.00 in
18:46 57.7 °F 51.6 °F 29.54 in NNW 1.2 mph 3.0 mph 80 % 0.00 in
18:51 57.5 °F 51.0 °F 29.53 in NW 1.4 mph 3.5 mph 79 % 0.00 in
18:56 57.2 °F 51.1 °F 29.53 in NNW 0.7 mph 2.0 mph 80 % 0.00 in
19:01 57.1 °F 51.0 °F 29.54 in WNW 1.0 mph 3.5 mph 80 % 0.00 in
19:06 56.9 °F 50.8 °F 29.54 in NNW 0.2 mph 1.2 mph 80 % 0.00 in
19:11 56.8 °F 51.0 °F 29.53 in NW 0.6 mph 3.5 mph 81 % 0.00 in
19:16 56.7 °F 50.9 °F 29.53 in NW 0.3 mph 1.2 mph 81 % 0.00 in
19:21 56.6 °F 50.8 °F 29.53 in WNW 0.3 mph 3.5 mph 81 % 0.00 in
19:26 56.5 °F 51.1 °F 29.53 in WNW 0.1 mph 1.2 mph 82 % 0.00 in
19:31 56.4 °F 51.0 °F 29.54 in NW 2.0 mph 3.0 mph 82 % 0.00 in
19:36 56.3 °F 50.9 °F 29.54 in NW 0.2 mph 3.5 mph 82 % 0.00 in
19:41 56.3 °F 50.9 °F 29.54 in WNW 1.5 mph 4.0 mph 82 % 0.00 in
19:47 56.2 °F 50.8 °F 29.53 in WNW 1.0 mph 3.5 mph 82 % 0.00 in
19:52 56.1 °F 50.7 °F 29.53 in WNW 0.6 mph 2.3 mph 82 % 0.00 in
19:57 56.0 °F 50.6 °F 29.53 in WNW 0.5 mph 2.3 mph 82 % 0.00 in
20:02 55.9 °F 50.5 °F 29.53 in WNW 0.7 mph 3.0 mph 82 % 0.00 in
20:07 55.9 °F 50.8 °F 29.53 in Calm   3.0 mph 83 % 0.00 in
20:12 55.7 °F 50.6 °F 29.54 in WNW 1.5 mph 3.5 mph 83 % 0.00 in
20:17 55.6 °F 50.5 °F 29.53 in WNW 0.2 mph 2.3 mph 83 % 0.00 in
20:22 55.5 °F 50.4 °F 29.53 in Calm   1.2 mph 83 % 0.00 in
20:27 55.4 °F 50.3 °F 29.53 in WNW 0.3 mph 1.2 mph 83 % 0.00 in
20:32 55.4 °F 50.3 °F 29.53 in WNW 0.5 mph 2.3 mph 83 % 0.00 in
20:37 55.3 °F 50.2 °F 29.53 in Calm     83 % 0.00 in
20:42 55.2 °F 50.1 °F 29.53 in WNW 1.5 mph 2.3 mph 83 % 0.00 in
20:47 55.1 °F 50.0 °F 29.54 in WNW 0.7 mph 1.2 mph 83 % 0.00 in
20:52 55.0 °F 49.6 °F 29.54 in WNW 0.3 mph 2.3 mph 82 % 0.00 in
20:57 54.9 °F 49.5 °F 29.53 in NNW 2.2 mph 2.3 mph 82 % 0.00 in
21:02 54.9 °F 49.5 °F 29.53 in NW 0.4 mph 4.6 mph 82 % 0.00 in
21:07 54.8 °F 49.4 °F 29.54 in NW 0.2 mph 1.2 mph 82 % 0.00 in
21:12 54.8 °F 49.4 °F 29.54 in NW 0.3 mph 1.0 mph 82 % 0.00 in
21:17 54.8 °F 49.4 °F 29.54 in NW 0.2 mph 1.2 mph 82 % 0.00 in
21:22 54.7 °F 49.3 °F 29.55 in NW 0.8 mph 2.3 mph 82 % 0.00 in
21:27 54.7 °F 49.3 °F 29.55 in Calm     82 % 0.00 in
21:33 54.6 °F 49.2 °F 29.55 in WNW 0.1 mph 1.2 mph 82 % 0.00 in
21:38 54.5 °F 49.1 °F 29.55 in WSW 1.5 mph 6.9 mph 82 % 0.00 in
21:43 54.4 °F 48.7 °F 29.55 in WSW 3.6 mph 9.2 mph 81 % 0.00 in
21:48 54.2 °F 47.8 °F 29.55 in NW 6.7 mph 11.5 mph 79 % 0.00 in
21:53 54.3 °F 46.9 °F 29.55 in WNW 5.1 mph 11.5 mph 76 % 0.00 in
21:54 54.4 °F 47.0 °F 29.55 in West 3.7 mph 9.2 mph 76 % 0.00 in
21:59 54.6 °F 46.5 °F 29.55 in WNW 5.0 mph 12.7 mph 74 % 0.00 in
22:04 54.9 °F 46.0 °F 29.55 in WNW 9.1 mph 12.7 mph 72 % 0.00 in
22:09 55.2 °F 46.7 °F 29.56 in West 7.4 mph 11.5 mph 73 % 0.00 in
22:14 55.4 °F 46.5 °F 29.56 in NNW 7.3 mph 12.7 mph 72 % 0.00 in
22:19 55.5 °F 46.6 °F 29.56 in NW 6.4 mph 15.0 mph 72 % 0.00 in
22:24 55.7 °F 46.4 °F 29.55 in WSW 6.3 mph 9.2 mph 71 % 0.00 in
22:29 55.7 °F 46.4 °F 29.56 in NW 3.0 mph 12.7 mph 71 % 0.00 in
22:34 55.7 °F 46.4 °F 29.56 in West 6.4 mph 11.5 mph 71 % 0.00 in
22:39 55.7 °F 46.8 °F 29.56 in NNW 7.1 mph 10.4 mph 72 % 0.00 in
22:44 55.7 °F 46.8 °F 29.56 in WSW 3.0 mph 15.0 mph 72 % 0.00 in
22:49 55.7 °F 46.8 °F 29.56 in NW 5.7 mph 10.4 mph 72 % 0.00 in
22:54 55.6 °F 46.7 °F 29.56 in NW 2.1 mph 9.2 mph 72 % 0.00 in
23:00 55.5 °F 46.2 °F 29.56 in WSW 6.3 mph 12.7 mph 71 % 0.00 in
23:05 55.5 °F 46.2 °F 29.56 in WNW 1.8 mph 9.2 mph 71 % 0.00 in
23:10 55.4 °F 46.2 °F 29.56 in WNW 7.1 mph 9.2 mph 71 % 0.00 in
23:15 55.3 °F 45.7 °F 29.56 in NW 7.4 mph 12.7 mph 70 % 0.00 in
23:20 55.3 °F 46.1 °F 29.56 in NNW 4.6 mph 9.2 mph 71 % 0.00 in
23:25 55.2 °F 46.0 °F 29.56 in WNW 6.0 mph 10.4 mph 71 % 0.00 in
23:30 55.1 °F 46.2 °F 29.56 in West 2.8 mph 11.5 mph 72 % 0.00 in
23:35 55.1 °F 46.2 °F 29.56 in WNW 3.6 mph 9.2 mph 72 % 0.00 in
23:40 55.0 °F 45.8 °F 29.56 in West 4.9 mph 13.0 mph 71 % 0.00 in
23:45 55.0 °F 45.8 °F 29.56 in West 4.7 mph 17.3 mph 71 % 0.00 in
23:50 54.9 °F 45.7 °F 29.56 in WSW 5.3 mph 9.0 mph 71 % 0.00 in
23:55 54.9 °F 45.3 °F 29.56 in WNW 5.8 mph 11.5 mph 70 % 0.00 in
Crab Meadow Weather
Compliments of Weather Underground - 3 mb

Script developed by  Jim McMurry - jmcmurry@mwt.net Adapted for the template by  Wim van der Kuil - Leuven-Template.eu

Recycling: To produce each week's Sunday newspapers, 500,000 trees must be cut down.